Regional Weather Roundup
Issued by NWS

Home | Current Version | Previous Version | Text Only | Print | Product List | Glossary On
Versions: 1 2 3 4 5 6 7 8 9 10 11 12 13 14 15 16 17 18 19 20 21 22 23 24 25 26 27 28 29 30 31 32 33 34 35 36 37 38 39 40 41 42 43 44 45 46 47 48 49 50
208
ASUS43 KMKX 292000
RWRWI

WISCONSIN REGIONAL WEATHER ROUNDUP
NATIONAL WEATHER SERVICE MILWAUKEE/SULLIVAN WI
300 PM CDT SUN MAY 29 2016

NOTE: "FAIR" INDICATES FEW OR NO CLOUDS BELOW 12,000 FEET WITH NO
SIGNIFICANT WEATHER AND/OR OBSTRUCTIONS TO VISIBILITY.

WIZ001-002-006>008-014>016-023>028-292100-
NORTHWEST WISCONSIN

CITY           SKY/WX    TMP DP  RH WIND       PRES   REMARKS
SUPERIOR ARPT  LGT RAIN  66  58  73 NW14G24   29.88R
ASHLAND        CLOUDY    68  57  68 W10G17    29.86R
HAYWARD        CLOUDY    68  55  63 VRB7      29.90S
SIREN          CLOUDY    71  53  53 W16G22    29.93S
CUMBERLAND     CLOUDY    68  54  60 W21       29.94R
RICE LAKE      CLOUDY    72  57  58 W16G24    29.94S
CHETEK         NOT AVBL
LADYSMITH      MOSUNNY   72  59  64 W18G28    29.93R
EAU CLAIRE     NOT AVBL
MENOMONIE      PTSUNNY   74  62  65 W16G22    29.94S
NEW RICHMOND   MOSUNNY   73  55  54 W13G22    29.95F
OSCEOLA        MOSUNNY   74  58  56 W12G17    29.97F
$$

WIZ003>005-009-010-017-018-292100-
NORTH CENTRAL WISCONSIN

CITY           SKY/WX    TMP DP  RH WIND       PRES   REMARKS
MANITOWISH WTR NOT AVBL
ARBOR VITAE      N/A     68  61  77 W13G20    29.86F
WOODRUFF         N/A     68  61  77 W13G20    29.86F
RHINELANDER    LGT RAIN  67  58  72 W16G24    29.88S
EAGLE RIVER      N/A     68  56  65 SW12      29.85S
LAND O LAKES   CLOUDY    67  58  72 W10G17    29.85S
PHILLIPS       CLOUDY    67  59  73 W9G18     29.88S
TOMAHAWK       RAIN      65  59  80 W6        29.89S
MEDFORD        CLOUDY    67  62  83 W8        29.91S
MERRILL        LGT RAIN  66  61  82 W17       29.89S
$$

WIZ029-030-035-036-043>047-292100-
CENTRAL WISCONSIN

CITY           SKY/WX    TMP DP  RH WIND       PRES   REMARKS
WAUSAU         PTSUNNY   71  63  75 W16G23    29.89R
MOSINEE        PTSUNNY   66  61  82 W18G24    29.92S
MARSHFIELD     PTSUNNY   71  61  70 W13G22    29.92S
STEVENS POINT  CLOUDY    67  59  73 W16G23    29.93S
WAUPACA        CLOUDY    73  62  68 W13G20    29.92R
WAUTOMA        PTSUNNY  N/A N/A N/A W21G30    29.92F
WISC RAPIDS    PTSUNNY   75  57  53 NW15G24   29.93S
CAMP DOUGLAS   NOT AVBL
$$

WIZ011>013-019>022-031-037>040-048>050-292100-
NORTHEAST WISCONSIN

CITY           SKY/WX    TMP DP  RH WIND       PRES   REMARKS
ANTIGO         CLOUDY    66  60  81 SW16G22   29.88S
SHAWANO        PTSUNNY   75  59  57 W9G18     29.87F
OCONTO         CLOUDY    73  63  72 W12G22    29.85S
STURGEON BAY   NOT AVBL
GREEN BAY      CLOUDY    72  61  68 SW17G23   29.88S
MANITOWOC      NOT AVBL
APPLETON       PTSUNNY   72  55  56 W18       29.90S
CLINTONVILLE   LGT RAIN  66  61  82 W12       29.90R
OSHKOSH        CLOUDY    75  58  55 W12G26    29.91S
$$

WIZ032>034-041-042-053>061-292100-
SOUTHWEST WISCONSIN

CITY           SKY/WX    TMP DP  RH WIND       PRES   REMARKS
LA CROSSE      MOSUNNY   80  57  45 NW16G22   29.95S HX  80
SPARTA         PTSUNNY   76  57  51 W13G21    29.95S
VIROQUA        PTSUNNY   73  57  56 W17G25    29.99S
BOSCOBEL       PTSUNNY   78  58  49 W10       29.98S
PRAIRIE DU CHI PTSUNNY   77  56  47 W13G20    29.99S
PLATTEVILLE    MOSUNNY   77  59  53 W15G25    30.02S
$$

WIZ056-057-062-063-064-067-068-292100-
SOUTH CENTRAL WISCONSIN

CITY           SKY/WX    TMP DP  RH WIND       PRES   REMARKS
REEDSBURG      PTSUNNY   76  57  52 W20G29    29.96S
BARABOO/DELLS  CLOUDY    75  54  47 W15G21    29.96S
LONE ROCK      NOT AVBL
MINERAL POINT  MOSUNNY   77  59  53 W18       30.01S
MADISON        MOSUNNY   77  56  48 W8G23     29.96S
MIDDLETON      MOSUNNY   78  60  53 W15       29.98S HX  80
WATERTOWN      MOSUNNY   76  59  56 W14G22    29.96S
MONROE         MOSUNNY   77  55  47 W15G30    30.00S
JANESVILLE     PTSUNNY   79  57  47 W15G24    29.98S HX  80
$$

WIZ051-052-058>065-066-070>072-292100-
SOUTHEAST WISCONSIN

CITY           SKY/WX    TMP DP  RH WIND       PRES   REMARKS
MILWAUKEE      PTSUNNY   78  56  46 W15G26    29.95F
WAUKESHA       PTSUNNY   75  55  50 W12G23    29.97S
MILWAUKEE/TIMM PTSUNNY   77  54  44 SW17G26   29.96S
RACINE         PTSUNNY   78  59  51 W14G21    29.97F
BURLINGTON     MOSUNNY   76  57  51 W17G23    29.97S
KENOSHA        MOSUNNY   77  60  55 W16G30    29.97F
FOND DU LAC    PTSUNNY   75  59  57 W13G22    29.92S
SHEBOYGAN      PTSUNNY   72  61  68 W7        29.92S
WEST BEND      MOSUNNY   73  57  56 W16G25    29.94S
JUNEAU         MOSUNNY   73  58  59 SW21G30   29.96S
$$

LSZ147-162-292100-
LAKE SUPERIOR

STATION/POSITION TIME  TEMP    WIND        PRES    WAVE
                       AIR SEA DIR/SP/G            HT/PER
                 (UTC) (F)     (DEG/KT/KT) (MB)    (FT/S)
W MID LAKE BUOY  1850   46 38  240/ 14/ 14 1008.8S   1
DEVILS ISLAND    1900   54     240/ 22/ 26 1009.8R
PORT WING        1840   61     260/ 14/ 21 1010.8R
SAXON HARBOR     1900   67     280/ 11/ 19 1009.8R
$$

LMZ867-665-643>646-292100-
LAKE MICHIGAN

STATION/POSITION TIME  TEMP    WIND        PRES    WAVE
                       AIR SEA DIR/SP/G            HT/PER
                 (UTC) (F)     (DEG/KT/KT) (MB)    (FT/S)
CHAMBERS ISLAND  1900   68     200/  7/ 12 1010.5F
N MID LAKE BUOY  1850   50 47  190/ 12/ 16 1010.9F   2/ 4
NORTHPORT PIER   1900   61     160/  3/  6 1010.5F
KEWAUNEE LAKESHO 1900   72     240/  9/ 18 1011.3F
SHEBOYGAN LAKESH 1900   72     260/ 10/ 14 1013.2R
PORT WASHINGTON  1900   78     250/ 11/ 21 1014.2
S MID LAKE BUOY  1850   57 51  230/ 12/ 12 1015.2R   1/ 3
KENOSHA   LAKESH 1900   75     240/ 16/ 25 1014.9S
$$

TC  - TEMPERATURE IN CELSIUS
VSB - VISIBILITY IN STATUTE MILES
WCI - WIND CHILL INDEX
HX  - HEAT INDEX





USA.gov is the U.S. government's official web portal to all federal, state and local government web resources and services.